Location: Colossi of Memnon
(25.7167°N, 32.6167°E)
Time: 19:50:20
(UTC+00:00)

SJ-12 - Pass Details

Date: 05 March 2021
Orbit: 568 x 585 km, 97.7° (Epoch: 20 April)

Event Time Altitude Azimuth Distance (km) Brightness Sun altitude
Rises 02:38:03 0° 13° (NNE) 2,770 7.6 -21.3°
Reaches altitude 10° 02:40:12 10° 14° (NNE) 1,869 6.7 -20.8°
Maximum altitude 02:44:15 80° 101° (E) 579 3.9 -19.9°
Drops below altitude 10° 02:48:16 10° 189° (S) 1,857 6.4 -19.0°
Sets 02:50:24 0° 190° (S) 2,750 7.3 -18.5°
